x

Silver Bay, Mn (slvm5) Weather Station

1:40pm - Mon 23rd Oct 2017 All times are CDT. -5 hours from GMT.

  • Wind
    16mph, 22mph gusts
  • Air Temp 51°f
  • Sea Pressure 1004.1mb
  • Silver Bay, Mn
  • Silver Bay, Mn

More Historic Weather Station data

Upgrade to MSW Pro to gain access to the past 30 days of data for over 8000 Wavebouys and Weather Stations around the globe.

Join

Comparision Forecast

View Surf forecast
   
Mon 10/23 1:40pm 16 22 mph 1004.1mb 51f
1:30pm 20 24 mph 1004.1mb 52f
1:20pm 20 24 mph 1004.1mb 52f
1:10pm 18 20 mph 1004.4mb 51f
1:09pm 17 20 mph 1004.4mb 51f
1:00pm 15 17 mph 1004.4mb 50f
12:40pm 17 20 mph 1004.7mb 50f
12:30pm 17 20 mph 1004.7mb 49f
12:20pm 15 17 mph 1005.1mb 49f
12:10pm 13 16 mph 1005.1mb 49f
12:09pm 10 18 mph 1005.1mb 49f
12:00pm 13 15 mph 1004.7mb 49f
11:40am 15 17 mph 1004.7mb 50f
11:30am 16 18 mph 1005.1mb 50f
11:20am 11 14 mph 1005.1mb 48f
11:10am 9 13 mph 1005.4mb 48f
11:09am 9 13 mph 1005.4mb 48f
11:00am 8 8 mph 1005.4mb 49f
10:40am 8 9 mph 1005.4mb 48f
10:30am 5 6 mph 1005.4mb 49f
10:20am 5 6 mph 1005.1mb 51f
10:10am 5 6 mph 1005.4mb 50f
10:08am 6 6 mph 1005.4mb 51f
10:00am 6 8 mph 1005.1mb 51f
9:40am 5 6 mph 1005.1mb 55f
9:30am 3 5 mph 1005.8mb 51f
9:20am 3 5 mph 1005.4mb 48f
9:10am  -  1 mph 1005.1mb 50f
9:08am  -  3 mph 1005.1mb 49f
9:00am 1 2 mph 1005.4mb 49f
8:40am  -  2 mph 1005.8mb 48f
8:30am 2 3 mph 1005.8mb 48f
8:20am  -  2 mph 1005.8mb 47f
8:10am  -  2 mph 1006.1mb 47f
8:07am  -  6 mph 1005.8mb 47f
8:00am 2 5 mph 1005.8mb 48f
7:40am 2 5 mph 1005.4mb 47f
7:30am 3 5 mph 1005.4mb 47f
7:20am 2 6 mph 1005.4mb -
7:10am 5 7 mph 1005.4mb -
7:07am 5 7 mph 1005.8mb -
7:00am 6 8 mph 1005.4mb 49f
6:40am 3 8 mph 1006.1mb -
6:30am 6 9 mph 1005.8mb 49f
6:20am 7 10 mph 1006.1mb 49f
6:10am 8 10 mph 1006.1mb 49f
6:07am 8 10 mph 1006.1mb 48f
6:00am 6 9 mph 1006.1mb 49f
5:40am 5 7 mph 1006.4mb 49f
5:30am 2 5 mph 1006.8mb 48f
5:20am 2 6 mph 1006.8mb 47f
5:10am 2 5 mph 1007.1mb 48f
5:06am 2 6 mph 1007.1mb 48f
5:00am 2 5 mph 1007.5mb 48f
4:40am  -  5 mph 1007.5mb 47f
4:30am 2 6 mph 1007.5mb 48f
4:20am 6 7 mph - -
4:10am 3 3 mph 1007.8mb 49f
4:06am 2 5 mph 1007.8mb 49f
4:00am 1 5 mph 1007.8mb 49f
3:40am 2 5 mph 1007.8mb 49f
3:30am 2 2 mph 1008.1mb 51f
3:20am  -  5 mph 1008.5mb 50f
3:10am 5 7 mph 1008.5mb -
3:05am 2 6 mph 1008.5mb 49f
3:00am 3 6 mph 1008.5mb 49f
2:40am 2 2 mph 1008.5mb 48f
2:30am 2 2 mph 1008.8mb 48f
2:20am  -  1 mph 1008.8mb 47f
2:10am  -  2 mph 1009.1mb 47f
2:05am 2 3 mph 1009.5mb 47f
2:00am 1 2 mph 1009.1mb 47f
1:40am 1 2 mph 1009.1mb 47f
1:30am 2 6 mph 1009.5mb 47f
1:20am 2 3 mph 1009.5mb 47f
1:10am 1 5 mph 1009.5mb 47f
1:04am 3 8 mph 1009.5mb 48f
1:00am 3 6 mph 1009.5mb 48f
12:40am 6 7 mph 1009.8mb 49f
12:30am 5 6 mph 1009.8mb 49f
12:20am 2 6 mph 1009.8mb 48f
12:10am 3 8 mph 1010.2mb 47f
12:04am 6 13 mph 1010.2mb 47f
12:00am 6 7 mph 1010.2mb 47f
Sun 10/22 11:40pm 8 13 mph 1010.8mb 46f
11:30pm 7 8 mph 1010.8mb 46f
11:20pm 6 8 mph 1010.8mb 48f
11:10pm 7 9 mph 1011.2mb 48f
11:04pm 6 8 mph - 48f
11:00pm 5 8 mph 1010.8mb 48f
10:40pm 2 5 mph 1011.2mb 44f
10:30pm 5 6 mph 1011.2mb 44f
10:20pm 5 7 mph 1011.2mb 44f
10:10pm 7 7 mph 1011.2mb 44f
10:03pm 6 6 mph 1011.2mb 46f
10:00pm 6 7 mph 1011.2mb 46f
9:40pm 7 8 mph 1011.2mb -
9:30pm 6 7 mph 1011.2mb 44f
9:20pm 7 7 mph 1011.5mb 44f
9:10pm 6 6 mph 1011.5mb 44f
9:03pm 5 7 mph 1011.5mb 43f
9:00pm 5 5 mph 1011.5mb 43f
8:40pm 3 7 mph 1011.5mb 44f
8:31pm 5 7 mph 1011.5mb 49f
8:30pm 5 7 mph 1011.5mb 49f
8:20pm 6 7 mph 1011.5mb -
8:10pm 3 5 mph 1011.5mb 45f
8:02pm 3 9 mph 1011.5mb 49f
8:00pm 3 6 mph 1011.5mb 49f
7:40pm 8 9 mph 1011.5mb 45f
7:31pm 5 10 mph 1011.5mb -
7:30pm 5 10 mph 1011.5mb -
7:20pm 8 10 mph 1011.5mb 44f
7:10pm 3 5 mph 1011.5mb 45f
7:02pm 3 8 mph 1011.5mb 45f
7:00pm 5 7 mph 1011.5mb 45f
6:40pm 3 8 mph 1011.2mb 46f
6:30pm 7 7 mph 1011.2mb 46f
6:20pm 6 8 mph 1010.8mb 47f
6:10pm 7 13 mph 1010.8mb 46f
6:01pm 11 16 mph 1010.8mb 47f
6:00pm 11 13 mph 1010.8mb 47f
5:40pm 13 16 mph 1010.8mb 48f
5:30pm 15 17 mph 1010.8mb 48f
5:20pm 16 17 mph 1010.8mb 48f
5:10pm 16 17 mph 1010.5mb 48f
5:01pm 16 23 mph 1010.5mb 47f
5:00pm 16 17 mph 1010.5mb 47f
4:40pm 15 23 mph 1010.2mb 49f
4:30pm 16 20 mph 1010.2mb 49f
4:20pm 16 20 mph 1010.2mb 48f
4:10pm 15 18 mph 1010.2mb 48f
4:00pm 16 20 mph 1010.2mb 49f
3:40pm 20 23 mph 1010.2mb 48f
3:30pm 16 21 mph 1010.2mb 48f
3:20pm 18 22 mph 1010.2mb 47f
3:10pm 18 22 mph 1010.5mb 47f
3:00pm 20 23 mph 1010.2mb 48f
2:40pm 20 23 mph 1010.5mb 48f
2:30pm 20 24 mph 1010.5mb 48f
2:20pm 17 21 mph 1010.5mb 48f
2:10pm 13 22 mph 1010.5mb 55f
2:00pm 11 17 mph 1010.5mb 50f
1:50pm 11 18 mph 1010.5mb 48f
1:40pm 16 22 mph 1010.5mb 48f
1:30pm 20 23 mph 1010.5mb 47f
1:00pm 17 20 mph 1010.8mb 46f
12:40pm 15 17 mph 1010.8mb 46f
12:30pm 16 20 mph 1010.8mb 46f
12:20pm 17 18 mph 1011.2mb 46f
12:10pm 17 20 mph 1011.5mb 46f
12:00pm 17 20 mph 1011.5mb 46f
11:50am 16 18 mph 1011.5mb 45f
11:40am 15 18 mph 1011.5mb 45f
11:30am 16 17 mph 1011.5mb 45f
11:26am 15 17 mph 1011.2mb 45f
11:20am 15 17 mph 1011.5mb 44f
11:10am 14 16 mph 1011.2mb 44f
11:00am 14 15 mph 1011.2mb 44f
10:50am 13 16 mph 1011.2mb 44f
10:40am 15 16 mph 1011.2mb 44f
10:30am 13 16 mph 1011.2mb 44f
10:25am 14 18 mph 1011.2mb 44f
10:20am 13 15 mph 1010.8mb 44f
10:10am 13 16 mph 1010.8mb 45f
10:00am 14 16 mph 1010.8mb 45f
9:50am 13 18 mph 1010.5mb 45f
9:40am 14 17 mph 1010.5mb 45f
9:30am 14 15 mph 1010.5mb 44f
9:25am 14 16 mph 1010.5mb 44f
9:20am 13 15 mph 1010.5mb 45f
9:10am 14 16 mph 1010.2mb 44f
9:00am 15 16 mph 1010.5mb 45f
8:50am 14 17 mph 1010.2mb 46f
8:40am 11 16 mph 1010.2mb 45f
8:30am 16 18 mph 1010.2mb 45f
8:24am 11 16 mph 1009.8mb 45f
8:20am 13 15 mph 1009.8mb 45f
8:10am 13 14 mph 1009.8mb 44f
8:00am 10 15 mph 1009.5mb 44f
7:50am 13 16 mph 1009.5mb 44f
7:40am 13 15 mph 1009.1mb 45f
7:30am 14 15 mph 1008.8mb 45f
7:24am 13 15 mph 1008.5mb 45f
7:20am 13 14 mph 1008.5mb 45f
7:10am 11 15 mph 1008.1mb 45f
7:00am 13 15 mph 1008.1mb 46f
6:50am 13 14 mph 1008.5mb 46f
6:40am 13 15 mph 1008.1mb 45f
6:30am 13 14 mph 1008.1mb 46f
6:24am 10 16 mph 1008.1mb 47f
6:20am 10 13 mph 1008.1mb 47f
6:10am 10 14 mph 1008.1mb 46f
6:00am 13 14 mph 1007.8mb 46f
5:50am 11 15 mph 1007.8mb 47f
5:40am 13 16 mph 1007.8mb 49f
5:30am 13 16 mph 1007.5mb 49f
5:23am 11 20 mph 1007.5mb 49f
5:20am 11 14 mph 1007.1mb 49f
5:10am 10 14 mph 1006.8mb 50f
5:00am 11 17 mph 1006.8mb 51f
4:50am 13 20 mph 1006.8mb 51f
4:40am 11 16 mph 1006.8mb 51f
4:30am 13 15 mph 1007.1mb 49f
4:23am 11 16 mph 1006.8mb 46f
4:20am 11 15 mph 1006.8mb 46f
4:10am 11 15 mph 1006.8mb 49f
4:00am 11 15 mph 1006.4mb 49f
3:50am 13 15 mph 1006.4mb 48f
3:40am 10 16 mph 1006.1mb 51f
3:30am 10 14 mph 1006.1mb 52f
3:22am 11 17 mph 1006.1mb 49f
3:20am 13 16 mph 1006.4mb 49f
3:10am 14 17 mph 1006.1mb 50f
3:00am 15 17 mph 1006.1mb 48f
2:50am 13 15 mph 1006.1mb 50f
2:40am 14 15 mph 1005.8mb 48f
2:30am 11 16 mph 1005.8mb 51f
2:22am 15 24 mph 1006.1mb 53f
2:20am 15 20 mph 1006.1mb 53f
2:10am 15 21 mph 1006.1mb 55f
2:00am 16 22 mph 1005.1mb 55f
1:50am 17 22 mph 1005.1mb 55f
1:40am 16 24 mph 1004.7mb 56f
1:30am 13 18 mph 1005.1mb 57f
1:22am 14 25 mph 1004.7mb 58f
1:20am 16 25 mph 1005.1mb 58f
1:10am 16 20 mph 1005.1mb 58f
1:00am 10 13 mph 1005.1mb 55f
12:50am 1 6 mph 1005.1mb 54f
12:40am 3 7 mph 1005.1mb 56f
12:30am 5 7 mph 1004.7mb 57f
12:21am 5 14 mph 1004.7mb 57f
12:20am 5 7 mph 1004.7mb 57f
12:10am 6 7 mph 1004.7mb 57f
12:00am 6 7 mph 1004.7mb 57f
Sat 10/21 11:50pm 6 8 mph 1004.7mb 57f
11:40pm 6 9 mph 1004.7mb 57f
11:30pm 7 14 mph 1005.1mb 56f
11:21pm 10 15 mph 1004.7mb 56f
11:20pm 10 14 mph 1005.1mb 56f
11:10pm 10 13 mph 1004.7mb 56f
11:00pm 10 15 mph 1005.1mb 56f
10:50pm 10 15 mph 1005.1mb 55f
10:40pm 10 14 mph 1004.7mb 55f
10:30pm 9 13 mph 1005.1mb 56f
10:20pm 8 13 mph 1005.1mb 55f
10:10pm 8 13 mph 1005.1mb 54f
10:00pm 10 13 mph 1005.1mb 54f
9:50pm 9 11 mph 1005.1mb 54f
9:40pm 6 8 mph 1005.1mb 55f
9:30pm 6 8 mph 1005.1mb 55f
9:20pm 5 10 mph 1005.1mb 54f
9:10pm 6 10 mph 1005.1mb 55f
9:00pm 7 9 mph 1005.4mb 54f
8:50pm 6 9 mph 1005.4mb 54f
8:40pm 5 8 mph 1005.4mb 55f
8:30pm 3 9 mph 1005.4mb 56f
8:20pm 5 9 mph 1005.4mb 56f
8:10pm 8 10 mph 1005.1mb 55f
8:00pm 9 14 mph 1005.4mb 54f
7:50pm 9 16 mph 1005.4mb 53f
7:40pm 13 16 mph 1005.4mb 55f
7:30pm 7 14 mph 1005.8mb 55f
7:20pm 10 15 mph 1005.8mb 54f
7:14pm 10 15 mph 1005.8mb 53f
7:10pm 10 15 mph 1005.8mb 53f
7:00pm 10 14 mph 1005.8mb 54f
6:50pm 7 11 mph 1005.8mb 53f
6:40pm 9 10 mph 1005.8mb 53f
6:30pm 7 10 mph 1005.4mb 53f
6:20pm 8 13 mph 1005.8mb 54f
6:14pm 9 13 mph 1005.8mb 54f
6:10pm 8 13 mph 1005.8mb 54f
6:00pm 9 13 mph 1005.4mb 54f
5:50pm 9 13 mph 1005.4mb 54f
5:40pm 6 8 mph 1005.1mb 53f
5:30pm 5 8 mph 1005.1mb 54f
5:20pm 5 9 mph 1005.1mb 55f
5:14pm 3 10 mph 1005.1mb 55f
5:10pm 7 9 mph 1005.1mb 55f
5:00pm 8 9 mph 1005.1mb 55f
4:50pm 8 10 mph 1005.1mb 54f
4:40pm 7 9 mph 1005.1mb 54f
4:30pm 7 7 mph 1005.1mb 53f
4:20pm 5 8 mph 1005.1mb 52f
4:13pm 7 8 mph 1005.1mb 51f
4:10pm 7 8 mph 1005.1mb 51f
4:00pm 2 6 mph 1005.1mb 53f
3:50pm 2 6 mph 1005.1mb 53f
3:40pm 6 6 mph 1005.1mb 49f
3:30pm 3 6 mph 1005.1mb 54f
3:20pm 5 6 mph 1005.1mb 53f
3:13pm 5 8 mph 1005.1mb 55f
3:10pm 3 6 mph 1005.1mb 55f
3:00pm 5 7 mph 1005.1mb 54f
2:50pm 3 6 mph 1005.1mb 54f
2:40pm 5 8 mph 1005.4mb 53f
2:30pm 7 7 mph 1005.4mb 52f
2:20pm 3 8 mph 1005.4mb 52f
2:12pm 7 8 mph 1005.4mb 52f
2:10pm 6 7 mph - 52f
2:00pm  -  5 mph 1005.4mb 51f
1:50pm 2 6 mph 1005.4mb 52f
1:40pm 3 6 mph 1005.4mb 51f
1:30pm 6 7 mph 1005.4mb -
1:20pm 5 6 mph 1005.4mb 52f
1:12pm 2 9 mph 1005.4mb 51f
1:10pm 5 9 mph 1005.4mb 51f
1:00pm 9 10 mph 1005.4mb -
12:50pm 3 6 mph 1005.4mb 57f
12:40pm 3 5 mph 1005.4mb 55f
12:30pm 3 3 mph 1005.8mb 56f
12:20pm 2 5 mph 1005.8mb 56f
12:12pm 2 7 mph 1005.8mb 54f
12:10pm 1 3 mph 1005.8mb 54f
12:00pm 2 5 mph 1005.8mb 57f
11:50am 1 3 mph 1005.8mb 60f
11:40am  -  6 mph 1005.8mb 58f
11:30am 5 7 mph 1006.1mb 52f
11:20am 6 7 mph 1006.4mb 51f
11:11am 5 6 mph 1006.4mb 51f
11:10am 5 5 mph 1006.4mb 51f
11:00am  -  8 mph 1006.8mb 53f
10:50am 6 7 mph 1006.8mb 52f
10:40am 5 10 mph 1006.8mb 57f
10:30am 8 11 mph 1006.4mb 57f
10:20am 8 14 mph 1006.4mb 56f
10:11am 9 13 mph 1006.1mb 56f
10:10am 9 13 mph 1006.1mb 56f
10:00am 7 11 mph 1006.8mb 57f
9:50am 8 10 mph 1006.8mb 57f
9:40am 6 8 mph 1006.8mb -
9:32am 6 7 mph 1006.4mb 58f
9:30am 3 6 mph 1006.4mb 58f
9:20am 5 7 mph 1006.4mb -
9:10am 5 7 mph 1006.4mb -
9:00am 5 8 mph 1006.1mb 58f
8:50am 6 9 mph 1006.1mb 58f
8:40am 6 8 mph 1006.4mb 58f
8:31am 6 8 mph 1006.4mb 58f
8:30am 6 8 mph 1006.1mb 58f
8:20am 6 8 mph 1006.1mb -
8:10am 6 8 mph 1006.1mb 57f
8:00am 6 9 mph 1005.8mb 57f
7:50am 7 8 mph 1005.8mb 57f
7:40am 3 8 mph 1005.8mb -
7:31am 7 8 mph 1005.8mb 57f
7:30am 7 8 mph 1005.8mb 57f
7:20am 6 8 mph 1005.8mb 58f
7:10am 6 7 mph 1005.8mb 56f
7:09am 6 9 mph 1005.8mb 56f
7:00am 6 7 mph 1005.8mb 56f
6:50am 6 8 mph 1005.8mb 56f
6:40am 8 9 mph 1005.8mb 56f
6:30am 6 10 mph 1005.8mb 56f
6:20am 7 9 mph 1005.8mb -
6:10am 7 9 mph 1006.1mb 56f
6:09am 7 9 mph 1005.8mb 56f
6:00am 6 8 mph 1006.1mb 55f
5:50am 6 8 mph 1006.1mb 56f
5:40am 6 8 mph 1006.1mb -
5:30am 5 7 mph 1006.1mb 56f
5:20am 3 6 mph 1006.1mb 56f
5:10am 5 7 mph 1006.4mb 56f
5:08am 3 9 mph 1006.4mb 57f
5:00am 6 8 mph 1006.4mb 56f
4:50am 7 8 mph 1006.4mb 55f
4:40am 6 9 mph 1006.4mb 56f
4:30am 6 10 mph 1006.4mb 56f
4:20am 7 10 mph 1006.4mb -
4:10am 8 10 mph 1006.4mb 55f
4:08am 8 10 mph 1006.4mb 55f
4:00am 8 10 mph 1006.4mb 55f
3:50am 8 10 mph 1006.8mb 55f
3:40am 7 10 mph 1006.8mb 55f
3:30am 6 9 mph 1006.8mb 56f
3:20am 5 7 mph - 55f
3:10am 3 7 mph 1006.8mb 54f
3:08am 5 7 mph 1006.8mb 54f
3:00am 6 7 mph 1006.8mb 55f
2:50am 5 7 mph 1007.1mb 54f
2:40am 5 9 mph 1007.1mb -
2:30am 7 10 mph 1007.1mb 54f
2:20am 7 10 mph 1007.1mb 53f
2:10am 7 9 mph 1007.1mb -
2:07am 7 9 mph 1007.1mb 54f
2:00am 8 9 mph 1007.1mb 54f
1:50am 7 9 mph 1007.1mb 53f
1:40am 7 8 mph 1007.1mb 53f
1:30am 5 6 mph 1007.1mb 53f
1:20am 3 6 mph 1007.1mb 55f
1:10am 3 7 mph 1007.1mb 54f
1:07am 3 7 mph 1007.1mb 54f
1:00am 3 5 mph 1007.1mb 53f
12:50am 3 9 mph 1007.1mb 53f
12:40am 5 8 mph 1007.1mb 54f
12:30am 2 6 mph 1007.1mb 53f
12:20am 2 6 mph 1007.1mb 53f
12:10am 2 3 mph 1007.1mb 53f
12:06am  -  7 mph 1007.1mb 53f
12:00am  -  5 mph 1007.1mb 53f
Fri 10/20 11:50pm 2 5 mph 1007.5mb 53f
11:40pm 2 3 mph 1007.5mb 53f
11:30pm 1 7 mph 1007.5mb 54f
11:20pm 2 7 mph 1007.5mb 52f
11:10pm 6 7 mph 1007.5mb 51f
11:06pm 2 3 mph 1007.8mb 52f
11:01pm 3 7 mph 1007.5mb 52f
11:00pm 3 6 mph 1007.5mb 52f
10:50pm 3 6 mph 1007.5mb 52f
10:40pm 5 7 mph 1007.5mb 53f
10:30pm 6 7 mph 1007.5mb 51f
10:20pm 2 7 mph 1007.5mb 52f
10:10pm 5 6 mph 1007.5mb 50f
10:05pm 5 6 mph 1007.5mb -
10:00pm 1 7 mph 1007.5mb 53f
9:50pm 7 9 mph 1007.5mb 55f
9:40pm 6 7 mph 1007.5mb 55f
9:30pm 6 8 mph 1007.1mb 54f
9:20pm 3 7 mph 1007.1mb 54f
9:10pm 7 8 mph 1007.1mb 54f
9:05pm 5 7 mph 1007.1mb -
9:00pm 5 9 mph 1007.1mb 56f
8:50pm 7 9 mph 1007.1mb 55f
8:40pm 6 13 mph 1007.1mb -
8:30pm 7 9 mph 1006.8mb 53f
8:20pm 7 9 mph 1006.8mb 52f
8:10pm 5 8 mph 1006.8mb -
8:04pm 6 7 mph 1006.8mb 54f
8:00pm 3 8 mph 1006.8mb 54f
7:50pm 6 9 mph 1006.8mb 54f
7:40pm 7 9 mph 1006.8mb 55f
7:30pm 5 9 mph 1006.8mb 55f
7:20pm 6 9 mph 1007.1mb 55f
7:10pm 7 11 mph 1006.8mb 55f
7:04pm 7 13 mph 1007.1mb 55f
7:00pm 8 10 mph 1007.1mb 55f
6:50pm 8 13 mph 1007.1mb 55f
6:40pm 8 13 mph 1007.1mb 55f
6:30pm 9 13 mph 1007.1mb 54f
6:20pm 8 13 mph 1007.1mb 54f
6:10pm 7 10 mph 1007.1mb 55f
6:04pm 7 15 mph 1007.1mb 55f
6:00pm 8 13 mph 1007.1mb 55f
5:50pm 9 15 mph 1007.1mb 55f
5:40pm 13 15 mph 1007.1mb 54f
5:30pm 9 11 mph 1007.5mb 55f
5:20pm 6 11 mph 1007.5mb 55f
5:10pm 8 13 mph 1007.5mb 55f
5:03pm 8 14 mph 1007.5mb 55f
5:00pm 8 14 mph 1007.8mb 55f
4:50pm 10 14 mph 1007.5mb 55f
4:40pm 6 11 mph 1007.8mb 56f
4:30pm 8 14 mph 1007.8mb 56f
4:20pm 9 14 mph 1007.5mb 56f
4:10pm 10 15 mph 1007.5mb 55f
4:03pm 9 14 mph 1007.8mb 56f
4:00pm 9 14 mph 1007.8mb 56f
3:50pm 9 14 mph 1007.8mb 56f
3:40pm 9 14 mph 1007.8mb 56f
3:30pm 9 14 mph 1007.8mb 56f
3:20pm 7 11 mph 1007.8mb -
3:10pm 10 14 mph 1008.1mb 57f
3:02pm 8 10 mph 1008.1mb 58f
3:00pm 8 13 mph 1008.1mb 58f
2:50pm 8 13 mph 1008.1mb 58f
2:40pm 8 13 mph 1008.1mb 57f
2:30pm 7 10 mph 1008.5mb 57f
2:20pm 8 11 mph 1008.5mb 57f
2:10pm 6 10 mph 1008.8mb 57f
2:02pm 6 9 mph 1008.8mb 56f
2:00pm 6 11 mph 1008.8mb 56f
1:50pm 5 9 mph 1009.1mb 57f
1:40pm 7 11 mph 1009.1mb -
1:30pm 10 14 mph 1009.1mb 50f
1:20pm 6 7 mph 1009.1mb -
1:10pm 6 7 mph 1009.5mb 54f
1:01pm 3 6 mph 1009.5mb 56f
1:00pm 3 6 mph 1009.5mb 56f
12:50pm 6 7 mph 1009.8mb 54f
12:40pm 5 8 mph 1009.8mb 53f
12:30pm 7 8 mph 1009.8mb 51f
12:20pm 7 7 mph 1009.8mb -
12:10pm 6 7 mph 1010.2mb 52f
12:01pm 6 6 mph 1010.2mb 51f
12:00pm 6 8 mph 1010.2mb 51f
11:40am 6 7 mph 1010.5mb -
11:30am 7 7 mph 1010.5mb 52f
11:20am 3 7 mph 1010.5mb 55f
11:10am 5 8 mph 1010.5mb -
11:00am 7 8 mph 1010.8mb 53f
10:50am 6 7 mph 1010.8mb 54f
9:50am 7 10 mph 1010.8mb 51f
9:00am  -  6 mph 1011.2mb 55f
8:50am 2 5 mph 1011.2mb 54f
8:40am 1 2 mph 1011.5mb 53f
8:30am  -  1 mph 1011.5mb 54f
8:20am 1 2 mph 1011.5mb 51f
8:10am 1 2 mph 1011.5mb 49f
8:00am 2 3 mph 1011.5mb 48f
7:50am 1 2 mph 1011.5mb 48f
7:40am  -  2 mph 1011.5mb 47f
7:30am 2 3 mph 1011.5mb 47f
7:20am 2 5 mph 1011.5mb 48f
7:10am 2 5 mph 1011.5mb 47f
7:00am 3 5 mph 1011.5mb 48f
6:50am 2 6 mph 1011.5mb 47f
6:40am 2 3 mph 1011.5mb 48f
6:30am 2 3 mph 1011.5mb 48f
6:20am 2 5 mph 1011.5mb 48f
6:10am 3 6 mph 1011.5mb 47f
6:00am 3 5 mph 1011.5mb 47f
5:50am 3 3 mph 1011.5mb 48f
5:40am 3 5 mph 1011.5mb 47f
5:30am 3 5 mph 1011.5mb 47f
5:20am 2 3 mph 1011.5mb 47f
5:10am 2 5 mph 1011.5mb 47f
5:00am 2 5 mph 1011.5mb 47f
4:50am 2 3 mph 1011.5mb 47f
4:40am 1 5 mph 1011.5mb 47f
4:30am 2 3 mph 1011.5mb 46f
4:20am  -  2 mph 1011.5mb 46f
4:10am 2 3 mph 1011.5mb 45f
4:00am 2 5 mph 1011.5mb 46f
3:50am 2 3 mph 1011.5mb 45f
3:40am  -  3 mph 1011.9mb 45f
3:30am 2 5 mph 1011.9mb 45f
3:20am 2 3 mph 1011.5mb 46f
3:10am 2 3 mph 1011.9mb 49f
3:02am 3 3 mph 1011.9mb 47f
3:00am 2 3 mph 1011.9mb 47f
2:50am 2 2 mph 1011.9mb 47f
2:40am 1 3 mph 1011.9mb 46f
2:30am  -  2 mph 1011.9mb 45f
2:20am  -  1 mph 1011.9mb 45f
2:10am  -  2 mph 1011.9mb 45f
2:01am 2 2 mph 1011.9mb 46f
2:00am 2 2 mph 1011.9mb 46f
1:50am  -  1 mph 1012.2mb 46f
1:40am  -  0 mph 1012.2mb 47f
1:30am  -  0 mph 1012.2mb 48f
1:20am  -  0 mph 1012.2mb 47f
1:10am  -  2 mph 1012.2mb 47f
1:01am 1 2 mph 1012.2mb 47f
1:00am 1 1 mph 1012.2mb 47f
12:50am 1 2 mph 1012.2mb 49f
12:40am 1 2 mph 1012.2mb 48f
12:30am 1 2 mph 1012.5mb 49f
12:20am  -  1 mph 1012.5mb 49f
12:10am 1 2 mph 1012.5mb 49f
12:00am 2 2 mph 1012.5mb 49f
Thu 10/19 11:50pm 1 2 mph 1012.5mb 49f
11:40pm 1 2 mph 1012.9mb 49f
11:30pm 2 3 mph 1012.9mb 47f
11:20pm 3 3 mph 1012.9mb 46f
11:10pm 2 3 mph 1012.9mb 47f
11:00pm 2 2 mph 1012.9mb 46f
10:50pm 2 3 mph 1012.9mb 46f
10:40pm 1 2 mph 1012.9mb 47f
10:30pm  -  0 mph 1012.9mb 47f
10:20pm  -  2 mph 1012.9mb 47f
10:10pm  -  3 mph 1012.9mb 47f
10:00pm 2 6 mph 1012.9mb 46f
9:50pm 6 7 mph 1012.9mb 45f
9:40pm 2 2 mph 1012.9mb 49f
9:30pm 1 2 mph 1012.9mb 47f
9:20pm  -  2 mph 1012.9mb 47f
9:10pm  -  1 mph 1012.9mb 47f
9:00pm  -  2 mph 1012.9mb 46f
8:40pm  -  2 mph 1012.9mb 51f
8:30pm  -  1 mph 1012.9mb 52f
8:20pm  -  6 mph 1012.9mb 53f
8:10pm 5 5 mph 1012.9mb 53f
8:00pm 2 3 mph 1012.9mb 52f
7:50pm 1 2 mph 1012.9mb 52f